TimeEST,TemperatureF,Dew PointF,Humidity,Sea Level PressureIn,VisibilityMPH,Wind Direction,Wind SpeedMPH,Gust SpeedMPH,PrecipitationIn,Events,Conditions,WindDirDegrees,DateUTC
12:30 AM,41.0,28.4,61,30.41,10.0,North,17.3,-,N/A,,Overcast,360,2012-11-14 05:30:00
12:51 AM,41.0,28.0,60,30.41,10.0,North,11.5,-,N/A,,Overcast,360,2012-11-14 05:51:00
1:51 AM,41.0,28.0,60,30.43,10.0,North,10.4,-,N/A,,Overcast,360,2012-11-14 06:51:00
2:09 AM,41.0,28.4,61,30.43,10.0,North,11.5,-,N/A,,Overcast,360,2012-11-14 07:09:00
2:51 AM,39.9,27.0,60,30.43,10.0,North,11.5,-,N/A,,Overcast,350,2012-11-14 07:51:00
3:51 AM,39.9,27.0,60,30.44,10.0,North,13.8,-,N/A,,Overcast,350,2012-11-14 08:51:00
4:51 AM,39.0,27.0,62,30.46,10.0,North,11.5,-,N/A,,Mostly Cloudy,350,2012-11-14 09:51:00
5:51 AM,37.9,27.0,65,30.47,10.0,North,12.7,-,N/A,,Mostly Cloudy,350,2012-11-14 10:51:00
6:51 AM,37.9,27.0,65,30.49,10.0,North,11.5,-,N/A,,Mostly Cloudy,10,2012-11-14 11:51:00
7:51 AM,39.0,28.0,65,30.51,10.0,North,15.0,-,N/A,,Mostly Cloudy,360,2012-11-14 12:51:00
8:51 AM,42.1,28.0,58,30.52,10.0,NNE,12.7,23.0,N/A,,Scattered Clouds,20,2012-11-14 13:51:00
9:51 AM,43.0,25.0,49,30.52,10.0,North,17.3,23.0,N/A,,Scattered Clouds,360,2012-11-14 14:51:00
10:51 AM,45.0,25.0,46,30.51,10.0,North,16.1,-,N/A,,Scattered Clouds,10,2012-11-14 15:51:00
11:51 AM,46.0,24.1,42,30.48,10.0,NNE,12.7,-,N/A,,Scattered Clouds,20,2012-11-14 16:51:00
12:51 PM,46.9,25.0,42,30.47,10.0,NNE,15.0,-,N/A,,Scattered Clouds,30,2012-11-14 17:51:00
1:51 PM,46.9,25.0,42,30.45,10.0,NE,13.8,21.9,N/A,,Scattered Clouds,40,2012-11-14 18:51:00
2:51 PM,46.9,27.0,46,30.45,10.0,NNE,13.8,20.7,N/A,,Scattered Clouds,30,2012-11-14 19:51:00
3:51 PM,44.1,27.0,51,30.47,10.0,NNE,10.4,-,N/A,,Scattered Clouds,30,2012-11-14 20:51:00
4:51 PM,39.9,27.0,60,30.48,10.0,NE,9.2,-,N/A,,Scattered Clouds,50,2012-11-14 21:51:00
5:51 PM,37.9,26.1,62,30.49,10.0,NNE,5.8,-,N/A,,Clear,30,2012-11-14 22:51:00
6:51 PM,37.0,26.1,65,30.49,10.0,NNE,6.9,-,N/A,,Clear,30,2012-11-14 23:51:00
7:51 PM,37.0,27.0,67,30.48,10.0,NNE,6.9,-,N/A,,Clear,20,2012-11-15 00:51:00
8:51 PM,37.0,26.1,65,30.48,10.0,North,6.9,-,N/A,,Clear,360,2012-11-15 01:51:00
9:51 PM,37.0,24.1,59,30.48,10.0,NNW,8.1,-,N/A,,Partly Cloudy,340,2012-11-15 02:51:00
10:51 PM,36.0,23.0,59,30.46,10.0,NNW,11.5,-,N/A,,Partly Cloudy,340,2012-11-15 03:51:00
11:51 PM,36.0,23.0,59,30.45,10.0,North,10.4,-,N/A,,Scattered Clouds,360,2012-11-15 04:51:00